KD8JAM Weather Reports


time (UTC)temp
C
wind
direction
speed
KPH
gust
KPH
rain 1hr
cm
rain 24hr
cm
rain mn
cm
humidity
%
barometer
mb
20260906191646 23 135 1.6 3.2 0.00 0.00 0.00 80 1021.9
20260906191146 23 102 4.8 4.8 0.00 0.00 0.00 80 1021.9
20260906190646 23 34 4.8 8.0 0.00 0.00 0.00 81 1022.2
20260906190141 23 138 3.2 4.8 0.00 0.00 0.00 80 1022.0
20260906185640 24 171 3.2 3.2 0.00 0.00 0.00 81 1022.2
20260906185139 24 130 1.6 1.6 0.00 0.00 0.00 80 1022.3
20260906184634 23 128 0.0 0.0 0.00 0.00 0.00 81 1022.2
20260906184130 23 153 6.4 8.0 0.00 0.00 0.00 82 1022.3
20260906183625 23 34 3.2 4.8 0.00 0.00 0.00 81 1022.4
20260906183121 24 156 3.2 3.2 0.00 0.00 0.00 81 1022.3
20260906182616 23 208 3.2 3.2 0.00 0.00 0.00 80 1022.5
20260906182113 23 146 0.0 1.6 0.00 0.00 0.00 82 1022.4
20260906181612 23 57 9.7 14.5 0.00 0.00 0.00 81 1022.7
20260906181108 24 185 1.6 3.2 0.00 0.00 0.00 81 1022.3
20260906180604 23 160 1.6 1.6 0.00 0.00 0.00 80 1022.4
20260906175601 23 160 4.8 8.0 0.00 0.00 0.00 81 1022.6
20260906175056 23 172 3.2 3.2 0.00 0.00 0.00 80 1022.7
20260906174548 23 169 3.2 3.2 0.00 0.00 0.00 81 1022.3
20260906174043 23 108 3.2 4.8 0.00 0.00 0.00 80 1022.7
20260906173538 23 147 0.0 1.6 0.00 0.00 0.00 81 1022.7
20260906173035 23 102 4.8 4.8 0.00 0.00 0.00 82 1022.6
20260906172529 23 155 0.0 0.0 0.00 0.00 0.00 81 1022.6
20260906172024 23 158 0.0 0.0 0.00 0.00 0.00 80 1022.7
20260906171519 23 143 0.0 1.6 0.00 0.00 0.00 81 1022.5
20260906171014 23 113 6.4 9.7 0.00 0.00 0.00 81 1022.7
20260906170510 23 148 1.6 3.2 0.00 0.00 0.00 81 1022.6
20260906170009 23 53 6.4 11.3 0.00 0.00 0.00 82 1022.6
20260906165506 22 52 6.4 9.7 0.00 0.00 0.00 82 1022.6
20260906165001 23 62 8.0 12.9 0.00 0.00 0.00 82 1022.6
20260906164500 23 125 1.6 3.2 0.00 0.00 0.00 83 1022.5
20260906163957 23 213 3.2 3.2 0.00 0.00 0.00 83 1022.8
20260906163451 23 112 4.8 8.0 0.00 0.00 0.00 83 1022.8
20260906162950 22 151 3.2 3.2 0.00 0.00 0.00 83 1022.7
20260906162449 23 71 3.2 8.0 0.00 0.00 0.00 84 1022.8
20260906161943 23 179 4.8 4.8 0.00 0.00 0.00 84 1022.5
20260906161438 23 132 1.6 1.6 0.00 0.00 0.00 84 1022.8
20260906160937 23 124 1.6 1.6 0.00 0.00 0.00 84 1022.7
20260906160430 22 163 3.2 3.2 0.00 0.00 0.00 84 1022.7
20260906155929 22 119 1.6 3.2 0.00 0.00 0.00 86 1022.6
20260906155422 22 131 4.8 8.0 0.00 0.00 0.00 85 1022.6
20260906154918 22 121 3.2 4.8 0.00 0.00 0.00 86 1022.7
20260906154413 22 134 3.2 8.0 0.00 0.00 0.00 86 1022.8
20260906153912 21 139 3.2 3.2 0.00 0.00 0.00 87 1022.7
20260906153410 21 47 3.2 3.2 0.00 0.00 0.00 89 1022.6
20260906152906 21 150 3.2 4.8 0.00 0.00 0.00 88 1022.8
20260906152401 21 232 6.4 8.0 0.00 0.00 0.00 87 1022.7
20260906151900 21 144 4.8 9.7 0.00 0.00 0.00 85 1023.1
20260906151355 21 199 1.6 3.2 0.00 0.00 0.00 87 1022.9
20260906150851 21 138 4.8 8.0 0.00 0.00 0.00 87 1022.9
20260906150347 20 132 4.8 9.7 0.00 0.00 0.00 89 1022.9
20260906145846 21 113 4.8 4.8 0.00 0.00 0.00 87 1022.9
20260906145345 21 146 1.6 3.2 0.00 0.00 0.00 90 1022.8
20260906144840 20 154 1.6 1.6 0.00 0.00 0.00 90 1022.6
20260906144335 20 161 4.8 4.8 0.00 0.00 0.00 90 1022.9
20260906143835 20 143 4.8 8.0 0.00 0.00 0.00 92 1022.7
20260906143331 20 181 1.6 1.6 0.00 0.00 0.00 92 1022.6
20260906142827 20 141 1.6 3.2 0.00 0.00 0.00 92 1022.6
20260906142321 20 173 3.2 3.2 0.00 0.00 0.00 91 1022.5
20260906141821 20 144 1.6 3.2 0.00 0.00 0.00 91 1022.9
20260906141316 20 136 0.0 1.6 0.00 0.00 0.00 94 1022.7
20260906140814 19 126 1.6 3.2 0.00 0.00 0.00 94 1023.2
20260906140309 19 195 1.6 3.2 0.00 0.00 0.00 94 1023.3
20260906135807 19 195 3.2 8.0 0.00 0.00 0.00 95 1023.2
20260906135305 19 134 3.2 4.8 0.00 0.00 0.00 96 1023.3
20260906134757 18 121 4.8 4.8 0.00 0.00 0.00 95 1023.1
20260906134252 18 144 0.0 1.6 0.00 0.00 0.00 97 1022.9
20260906133748 18 161 3.2 3.2 0.00 0.00 0.00 98 1023.1
20260906133243 17 120 0.0 0.0 0.00 0.00 0.00 99 1023.1
20260906132739 17 127 0.0 1.6 0.00 0.00 0.00 99 1023.2
20260906132234 17 161 1.6 1.6 0.00 0.00 0.00 99 1023.3
20260906131730 17 148 0.0 1.6 0.00 0.00 0.00 99 1023.2
20260906131225 16 128 1.6 3.2 0.00 0.00 0.00 99 1022.8
20260906130720 16 130 0.0 0.0 0.00 0.00 0.00 99 1022.7
20260906130215 16 142 0.0 1.6 0.00 0.00 0.00 99 1022.6
20260906125713 16 125 0.0 1.6 0.00 0.00 0.00 99 1022.7
20260906125212 16 162 0.0 1.6 0.00 0.00 0.00 99 1022.7
20260906124707 16 131 1.6 1.6 0.00 0.00 0.00 99 1022.8
20260906124203 16 98 3.2 4.8 0.00 0.00 0.00 99 1022.8
20260906123701 15 190 3.2 3.2 0.00 0.00 0.00 99 1022.8
20260906123157 15 139 1.6 3.2 0.00 0.00 0.00 99 1022.7
20260906122656 15 167 3.2 3.2 0.00 0.00 0.00 99 1022.6
20260906122151 15 126 1.6 1.6 0.00 0.00 0.00 99 1022.7
20260906121648 15 148 0.0 1.6 0.00 0.00 0.00 99 1022.6
20260906121144 15 150 0.0 0.0 0.00 0.00 0.00 99 1022.5
20260906120640 15 144 0.0 0.0 0.00 0.00 0.00 99 1022.7
20260906120137 15 145 0.0 0.0 0.00 0.00 0.00 99 1022.7
20260906115636 15 168 1.6 1.6 0.00 0.00 0.00 99 1022.3
20260906115132 15 147 1.6 1.6 0.00 0.00 0.00 99 1022.5
20260906114625 14 139 0.0 0.0 0.00 0.00 0.00 99 1022.2
20260906114121 14 146 0.0 0.0 0.00 0.00 0.00 99 1022.3
20260906113620 14 153 1.6 1.6 0.00 0.00 0.00 99 1022.3
20260906113115 14 151 1.6 1.6 0.00 0.00 0.00 99 1022.2
20260906112614 14 211 3.2 4.8 0.00 0.00 0.00 99 1022.3
20260906112112 14 161 0.0 0.0 0.00 0.00 0.00 99 1022.5
20260906111611 14 191 3.2 4.8 0.00 0.00 0.00 99 1022.3
20260906111106 14 151 0.0 0.0 0.00 0.00 0.00 99 1022.3
20260906110605 14 149 0.0 1.6 0.00 0.00 0.00 99 1022.0
20260906110100 15 185 0.0 1.6 0.00 0.00 0.00 99 1022.2
20260906105554 14 154 1.6 1.6 0.00 0.00 0.00 99 1022.3
20260906105051 14 154 0.0 0.0 0.00 0.00 0.00 99 1022.0
20260906104549 14 147 0.0 0.0 0.00 0.00 0.00 99 1022.2
20260906104044 14 150 0.0 0.0 0.00 0.00 0.00 99 1022.0
20260906103542 14 155 0.0 0.0 0.00 0.00 0.00 99 1022.4
20260906103038 14 153 0.0 0.0 0.00 0.00 0.00 99 1022.2
20260906102537 14 154 0.0 0.0 0.00 0.00 0.00 99 1022.3
20260906102032 14 158 0.0 0.0 0.00 0.00 0.00 99 1022.3
20260906101527 14 148 0.0 1.6 0.00 0.00 0.00 99 1022.3
20260906101022 14 159 0.0 0.0 0.00 0.00 0.00 99 1022.0
20260906100517 14 149 0.0 0.0 0.00 0.00 0.00 99 1021.9
20260906100012 14 154 0.0 0.0 0.00 0.00 0.00 99 1022.0
20260906095507 14 162 1.6 1.6 0.00 0.00 0.00 99 1022.1
20260906095003 14 152 0.0 1.6 0.00 0.00 0.00 99 1022.2
20260906094501 14 163 0.0 1.6 0.00 0.00 0.00 99 1022.1
20260906093957 14 153 0.0 0.0 0.00 0.00 0.00 99 1022.1
20260906093453 14 155 0.0 1.6 0.00 0.00 0.00 99 1022.1
20260906092954 14 156 0.0 0.0 0.00 0.00 0.00 99 1021.8
20260906092454 14 151 0.0 0.0 0.00 0.00 0.00 99 1021.9
20260906091949 14 148 0.0 1.6 0.00 0.00 0.00 99 1022.0
20260906091444 14 157 0.0 0.0 0.00 0.00 0.00 99 1021.8
20260906090941 14 162 0.0 0.0 0.00 0.00 0.00 99 1022.0
20260906090436 14 148 0.0 0.0 0.00 0.00 0.00 99 1022.2
20260906085936 14 152 0.0 0.0 0.00 0.00 0.00 99 1022.1
20260906085435 14 165 0.0 0.0 0.00 0.00 0.00 99 1022.1
20260906084935 14 150 0.0 0.0 0.00 0.00 0.00 99 1022.1
20260906084430 14 154 0.0 0.0 0.00 0.00 0.00 99 1021.9
20260906083928 14 154 0.0 0.0 0.00 0.00 0.00 99 1022.1
20260906083424 14 150 0.0 0.0 0.00 0.00 0.00 99 1022.1
20260906082924 13 150 0.0 0.0 0.00 0.00 0.00 99 1021.9
20260906082419 13 151 0.0 0.0 0.00 0.00 0.00 99 1021.9
20260906081915 13 149 0.0 0.0 0.00 0.00 0.00 99 1022.1
20260906081410 13 150 0.0 0.0 0.00 0.00 0.00 99 1022.1
20260906080906 13 155 0.0 0.0 0.00 0.00 0.00 99 1021.8
20260906080402 13 154 0.0 0.0 0.00 0.00 0.00 99 1021.9
20260906075901 13 151 0.0 1.6 0.00 0.00 0.00 99 1021.9
20260906075356 13 150 0.0 0.0 0.00 0.00 0.00 99 1021.9
20260906074852 13 148 0.0 0.0 0.00 0.00 0.00 99 1022.0
20260906074351 13 149 0.0 0.0 0.00 0.00 0.00 99 1021.8
20260906073850 13 151 0.0 0.0 0.00 0.00 0.00 99 1021.8
20260906073345 13 157 0.0 0.0 0.00 0.00 0.00 99 1021.8
20260906072842 13 151 0.0 0.0 0.00 0.00 0.00 99 1022.0
20260906072337 12 149 0.0 0.0 0.00 0.00 0.00 99 1021.7
20260906071833 12 149 0.0 0.0 0.00 0.00 0.00 99 1021.8
20260906071328 12 150 0.0 0.0 0.00 0.00 0.00 99 1021.9
20260906070824 12 156 0.0 0.0 0.00 0.00 0.00 99 1021.8
20260906070319 12 159 1.6 1.6 0.00 0.00 0.00 99 1022.0
20260906065814 12 150 0.0 0.0 0.00 0.00 0.00 99 1021.8
20260906065309 12 159 0.0 0.0 0.00 0.00 0.00 99 1021.7
20260906064805 12 149 0.0 0.0 0.00 0.00 0.00 99 1021.7
20260906064301 12 148 0.0 0.0 0.00 0.00 0.00 99 1021.9
20260906063755 12 149 0.0 0.0 0.00 0.00 0.00 99 1021.9
20260906063251 13 149 0.0 0.0 0.00 0.00 0.00 99 1021.7
20260906062746 13 149 0.0 0.0 0.00 0.00 0.00 99 1021.9
20260906062245 13 151 0.0 0.0 0.00 0.00 0.00 99 1021.9
20260906061741 13 149 0.0 0.0 0.00 0.00 0.00 99 1021.8
20260906061237 13 148 0.0 0.0 0.00 0.00 0.00 99 1021.5
20260906060732 13 150 0.0 0.0 0.00 0.00 0.00 99 1021.7
20260906060230 13 150 0.0 0.0 0.00 0.00 0.00 99 1021.6
20260906055725 13 147 0.0 0.0 0.00 0.00 0.00 99 1021.6
20260906055220 13 150 0.0 0.0 0.00 0.00 0.00 99 1021.6
20260906054715 13 150 0.0 0.0 0.00 0.00 0.00 99 1021.5
20260906054210 14 148 0.0 0.0 0.00 0.00 0.00 99 1021.4
20260906053707 14 151 0.0 1.6 0.00 0.00 0.00 99 1021.3
20260906053202 14 149 0.0 0.0 0.00 0.00 0.00 99 1021.3
20260906052657 14 150 0.0 0.0 0.00 0.00 0.00 99 1021.6
20260906052153 14 147 0.0 0.0 0.00 0.00 0.00 99 1021.3
20260906051650 15 148 0.0 0.0 0.00 0.00 0.00 99 1021.2
20260906051149 15 148 0.0 0.0 0.00 0.00 0.00 99 1021.4
20260906050645 15 150 0.0 0.0 0.00 0.00 0.00 99 1021.1
20260906050140 15 147 0.0 0.0 0.00 0.00 0.00 99 1021.4
20260906045638 15 147 0.0 0.0 0.00 0.00 0.00 99 1021.4
20260906045133 15 148 0.0 0.0 0.00 0.00 0.00 99 1021.4
20260906044630 15 158 0.0 0.0 0.00 0.00 0.00 99 1021.4
20260906044125 15 147 0.0 0.0 0.00 0.00 0.00 99 1021.2
20260906043621 15 149 0.0 0.0 0.00 0.00 0.00 99 1021.2
20260906043116 15 149 0.0 0.0 0.00 0.00 0.00 99 1021.1
20260906042615 15 158 0.0 0.0 0.00 0.00 0.00 99 1021.4
20260906042110 15 151 0.0 0.0 0.00 0.00 0.00 99 1021.4
20260906041606 15 153 0.0 0.0 0.00 0.00 0.00 99 1021.4
20260906041100 15 156 0.0 0.0 0.00 0.00 0.00 99 1021.2
20260906040556 15 149 0.0 0.0 0.00 0.00 0.00 99 1021.3
20260906040051 15 149 0.0 0.0 0.00 0.00 0.00 99 1021.2
20260906035547 15 150 0.0 0.0 0.00 0.00 0.00 99 1021.3
20260906035043 15 148 0.0 0.0 0.00 0.00 0.00 99 1021.1
20260906034542 15 165 0.0 0.0 0.00 0.00 0.00 99 1021.1
20260906034037 15 159 0.0 0.0 0.00 0.00 0.00 99 1020.9
20260906033532 15 151 0.0 0.0 0.00 0.00 0.00 99 1021.0
20260906033028 15 165 0.0 0.0 0.00 0.00 0.00 99 1021.1
20260906032525 15 150 0.0 0.0 0.00 0.00 0.00 99 1021.1
20260906032024 15 149 0.0 0.0 0.00 0.00 0.00 99 1021.2
20260906031520 15 156 0.0 0.0 0.00 0.00 0.00 99 1021.2
20260906031010 15 166 1.6 1.6 0.00 0.00 0.00 99 1021.0
20260906030509 15 154 1.6 1.6 0.00 0.00 0.00 99 1020.9
20260906030009 15 158 0.0 1.6 0.00 0.00 0.00 99 1020.8
20260906025508 15 174 0.0 0.0 0.00 0.00 0.00 99 1021.1
20260906025007 16 162 0.0 1.6 0.00 0.00 0.00 99 1021.1
20260906024502 16 149 0.0 0.0 0.00 0.00 0.00 99 1020.7
20260906023956 16 142 1.6 1.6 0.00 0.00 0.00 99 1021.3
20260906023452 16 162 1.6 1.6 0.00 0.00 0.00 99 1020.8
20260906022947 16 144 0.0 1.6 0.00 0.00 0.00 98 1020.9
20260906022443 16 146 0.0 0.0 0.00 0.00 0.00 98 1020.9
20260906021937 16 162 1.6 1.6 0.00 0.00 0.00 98 1020.7
20260906021432 16 147 0.0 0.0 0.00 0.00 0.00 98 1020.7
20260906020926 16 176 1.6 1.6 0.00 0.00 0.00 98 1021.0
20260906020421 16 162 1.6 1.6 0.00 0.00 0.00 97 1020.9
20260906015915 16 171 1.6 1.6 0.00 0.00 0.00 97 1020.8
20260906015415 16 174 1.6 1.6 0.00 0.00 0.00 97 1020.9
20260906014909 16 159 0.0 1.6 0.00 0.00 0.00 97 1020.8
20260906014409 16 149 0.0 0.0 0.00 0.00 0.00 97 1020.9
20260906013905 16 158 0.0 0.0 0.00 0.00 0.00 97 1020.9
20260906013401 17 157 0.0 0.0 0.00 0.00 0.00 96 1020.7
20260906012856 17 150 0.0 0.0 0.00 0.00 0.00 96 1020.7
20260906012351 17 150 0.0 0.0 0.00 0.00 0.00 95 1020.6
20260906011850 17 162 1.6 1.6 0.00 0.00 0.00 95 1020.9
20260906011345 17 150 0.0 0.0 0.00 0.00 0.00 95 1020.7
20260906010841 17 159 1.6 1.6 0.00 0.00 0.00 94 1020.6
20260906010337 17 155 0.0 1.6 0.00 0.00 0.00 94 1020.5
20260906005832 17 154 0.0 0.0 0.00 0.00 0.00 94 1020.6
20260906005331 17 171 0.0 1.6 0.00 0.00 0.00 94 1020.7
20260906004830 17 194 1.6 3.2 0.00 0.00 0.00 93 1020.8
20260906004330 17 153 1.6 1.6 0.00 0.00 0.00 93 1020.6
20260906003825 17 160 1.6 1.6 0.00 0.00 0.00 92 1020.8
20260906003321 18 156 1.6 1.6 0.00 0.00 0.00 92 1020.6
20260906002816 18 151 0.0 1.6 0.00 0.00 0.00 92 1020.6
20260906002315 18 151 0.0 1.6 0.00 0.00 0.00 91 1020.6
20260906001811 18 158 1.6 1.6 0.00 0.00 0.00 91 1020.6
20260906001306 18 146 0.0 0.0 0.00 0.00 0.00 90 1020.6
20260906000801 18 161 0.0 1.6 0.00 0.00 0.00 89 1020.8
20260906000256 19 159 1.6 1.6 0.00 0.00 0.00 89 1020.6
20260905235751 19 166 1.6 1.6 0.00 0.00 0.00 87 1020.7
20260905235250 20 146 0.0 0.0 0.00 0.00 0.00 87 1020.6
20260905234746 20 144 0.0 0.0 0.00 0.00 0.00 86 1020.4
20260905234241 20 150 0.0 1.6 0.00 0.00 0.00 85 1020.6
20260905233736 20 149 0.0 0.0 0.00 0.00 0.00 85 1020.5
20260905233236 20 142 0.0 1.6 0.00 0.00 0.00 84 1020.4
20260905232730 20 209 1.6 3.2 0.00 0.00 0.00 83 1020.7
20260905232226 20 140 1.6 1.6 0.00 0.00 0.00 83 1020.7
20260905231722 21 138 0.0 1.6 0.00 0.00 0.00 83 1020.7
20260905231217 21 157 3.2 3.2 0.00 0.00 0.00 82 1020.9
20260905230713 21 144 0.0 0.0 0.00 0.00 0.00 81 1020.8
20260905230210 21 98 3.2 3.2 0.00 0.00 0.00 80 1020.8
20260905225705 21 120 0.0 1.6 0.00 0.00 0.00 80 1020.7
20260905225200 21 143 4.8 4.8 0.00 0.00 0.00 79 1020.7
20260905224659 21 159 3.2 3.2 0.00 0.00 0.00 78 1021.0
20260905224154 22 170 1.6 1.6 0.00 0.00 0.00 79 1020.9
20260905223651 22 115 4.8 4.8 0.00 0.00 0.00 77 1020.9
20260905223148 22 91 3.2 3.2 0.00 0.00 0.00 76 1020.8
20260905222643 22 105 3.2 3.2 0.00 0.00 0.00 77 1020.8
20260905222143 22 129 1.6 3.2 0.00 0.00 0.00 76 1020.4
20260905221638 22 147 3.2 3.2 0.00 0.00 0.00 76 1020.6
20260905221135 22 191 3.2 4.8 0.00 0.00 0.00 75 1020.7
20260905220630 22 133 1.6 1.6 0.00 0.00 0.00 74 1020.5
20260905220127 22 105 3.2 3.2 0.00 0.00 0.00 74 1020.8
20260905215626 22 143 0.0 1.6 0.00 0.00 0.00 75 1020.8
20260905215122 23 182 1.6 3.2 0.00 0.00 0.00 74 1020.8
20260905214617 23 147 1.6 1.6 0.00 0.00 0.00 75 1020.6
20260905214112 22 139 1.6 3.2 0.00 0.00 0.00 76 1020.7
20260905213607 23 170 4.8 4.8 0.00 0.00 0.00 74 1020.5
20260905213102 22 142 1.6 1.6 0.00 0.00 0.00 76 1020.6
20260905212557 22 94 3.2 4.8 0.00 0.00 0.00 75 1020.4
20260905212056 23 152 1.6 1.6 0.00 0.00 0.00 75 1020.5
20260905211552 23 136 4.8 4.8 0.00 0.00 0.00 74 1020.6
20260905211047 23 136 1.6 1.6 0.00 0.00 0.00 74 1020.4
20260905210543 22 22 6.4 11.3 0.00 0.00 0.00 74 1020.6
20260905210038 23 158 3.2 4.8 0.00 0.00 0.00 73 1020.9
20260905205537 23 120 6.4 8.0 0.00 0.00 0.00 73 1020.9
20260905205037 23 148 1.6 3.2 0.00 0.00 0.00 74 1020.9
20260905204532 23 167 1.6 1.6 0.00 0.00 0.00 70 1020.6
20260905204026 23 170 0.0 1.6 0.00 0.00 0.00 73 1020.8
20260905203520 23 131 0.0 0.0 0.00 0.00 0.00 72 1020.7
20260905203016 23 155 3.2 3.2 0.00 0.00 0.00 72 1020.9
20260905202511 23 145 0.0 1.6 0.00 0.00 0.00 72 1020.7
20260905202007 23 170 3.2 3.2 0.00 0.00 0.00 72 1020.7
20260905201502 23 85 1.6 3.2 0.00 0.00 0.00 73 1021.0
20260905201002 23 106 4.8 4.8 0.00 0.00 0.00 72 1020.5
20260905200458 23 106 3.2 3.2 0.00 0.00 0.00 72 1020.4
20260905195956 23 108 3.2 4.8 0.00 0.00 0.00 74 1020.5
20260905195451 23 128 0.0 0.0 0.00 0.00 0.00 73 1020.6
20260905194947 23 137 3.2 3.2 0.00 0.00 0.00 71 1020.9
20260905194446 23 113 3.2 4.8 0.00 0.00 0.00 71 1020.6
20260905193941 23 147 1.6 1.6 0.00 0.00 0.00 71 1020.8
20260905193441 23 109 1.6 3.2 0.00 0.00 0.00 73 1021.0
20260905192936 23 186 1.6 4.8 0.00 0.00 0.00 71 1020.9
20260905192431 23 126 1.6 1.6 0.00 0.00 0.00 70 1021.1
20260905191926 24 38 6.4 11.3 0.00 0.00 0.00 71 1021.1